GW7030 Weather Reports


time (UTC)temp
C
wind
direction
speed
KPH
gust
KPH
rain 1hr
cm
rain 24hr
cm
rain mn
cm
humidity
%
barometer
mb
20260506233055 10 81 0.0 1.6 0.00 0.00 0.00 92 1020.9
20260506232523 9 81 0.0 1.6 0.00 0.00 0.00 92 1020.9
20260506232022 9 81 0.0 1.6 0.00 0.00 0.00 92 1021.0
20260506231553 9 81 0.0 3.2 0.00 0.00 0.00 93 1021.2
20260506231024 9 81 0.0 3.2 0.00 0.00 0.00 92 1021.1
20260506230518 9 81 0.0 1.6 0.00 0.00 0.00 92 1021.2
20260506230053 9 81 0.0 1.6 0.00 0.00 0.00 92 1021.2
20260506225524 9 81 0.0 1.6 0.00 0.00 0.00 93 1021.2
20260506225022 9 81 0.0 1.6 0.00 0.00 0.00 92 1021.2
20260506224556 9 81 0.0 1.6 0.00 0.00 0.00 92 1021.1
20260506224018 9 81 0.0 3.2 0.00 0.00 0.00 93 1021.1
20260506223517 9 73 0.0 3.2 0.00 0.00 0.00 94 1021.2
20260506223104 9 125 0.0 3.2 0.00 0.00 0.00 93 1021.2
20260506222517 9 107 0.0 3.2 0.00 0.00 0.00 94 1021.2
20260506222018 9 107 0.0 3.2 0.00 0.00 0.00 94 1021.2
20260506221552 9 107 1.6 3.2 0.00 0.00 0.00 94 1021.3
20260506221018 9 107 0.0 3.2 0.00 0.00 0.00 94 1021.2
20260506220514 9 107 0.0 3.2 0.00 0.00 0.00 94 1021.2
20260506220049 9 107 0.0 1.6 0.00 0.00 0.00 94 1021.3
20260506215527 9 107 0.0 1.6 0.00 0.00 0.00 95 1021.1
20260506215015 9 107 0.0 1.6 0.00 0.00 0.00 95 1021.2
20260506214608 9 107 0.0 1.6 0.00 0.00 0.00 96 1021.2
20260506214016 9 107 0.0 1.6 0.00 0.00 0.00 96 1021.3
20260506213515 8 107 0.0 1.6 0.00 0.00 0.00 95 1021.3
20260506213327 8 107 0.0 1.6 0.00 0.00 0.00 95 1021.3
20260506212518 8 107 0.0 1.6 0.00 0.00 0.00 95 1021.3
20260506212018 8 107 0.0 1.6 0.00 0.00 0.00 95 1021.2
20260506211550 8 107 0.0 1.6 0.00 0.00 0.00 96 1021.3
20260506211018 8 107 0.0 1.6 0.00 0.00 0.00 95 1021.2
20260506210516 8 107 0.0 1.6 0.00 0.00 0.00 95 1021.1
20260506210128 8 107 0.0 3.2 0.00 0.00 0.00 96 1021.1
20260506205516 8 107 0.0 3.2 0.00 0.00 0.00 96 1021.1
20260506205018 8 107 0.0 3.2 0.00 0.00 0.00 96 1021.0
20260506204552 8 107 0.0 1.6 0.00 0.00 0.00 96 1021.0
20260506204016 8 107 0.0 1.6 0.00 0.00 0.00 96 1021.0
20260506203516 8 107 0.0 3.2 0.00 0.00 0.00 96 1021.0
20260506203105 8 107 0.0 3.2 0.00 0.00 0.00 96 1021.0
20260506202517 8 107 0.0 1.6 0.00 0.00 0.00 96 1021.0
20260506202017 8 107 0.0 1.6 0.00 0.00 0.00 96 1021.0
20260506201608 8 107 0.0 1.6 0.00 0.00 0.00 96 1021.0
20260506201018 8 107 0.0 1.6 0.00 0.00 0.00 96 1020.9
20260506200516 8 107 0.0 1.6 0.00 0.00 0.00 96 1020.9
20260506200152 8 107 0.0 1.6 0.00 0.00 0.00 96 1020.9
20260506195521 8 107 0.0 3.2 0.00 0.00 0.00 96 1020.8
20260506195019 8 106 0.0 3.2 0.00 0.00 0.00 96 1020.8
20260506194620 8 92 0.0 1.6 0.00 0.00 0.00 96 1020.7
20260506194017 8 92 0.0 1.6 0.00 0.00 0.00 96 1020.8
20260506193520 8 118 0.0 1.6 0.00 0.00 0.00 96 1020.8
20260506193106 8 118 0.0 1.6 0.00 0.00 0.00 96 1020.8
20260506192516 8 118 0.0 1.6 0.00 0.00 0.00 96 1020.7
20260506192017 8 118 0.0 1.6 0.00 0.00 0.00 96 1020.8
20260506191611 8 118 0.0 1.6 0.00 0.00 0.00 96 1020.8
20260506191018 8 118 0.0 1.6 0.00 0.00 0.00 96 1020.7
20260506190528 8 118 0.0 1.6 0.00 0.00 0.00 96 1020.6
20260506190107 8 118 0.0 1.6 0.00 0.00 0.00 96 1020.6
20260506185517 8 118 0.0 1.6 0.00 0.00 0.00 96 1020.4
20260506185020 8 118 0.0 3.2 0.00 0.00 0.00 96 1020.4
20260506184602 8 118 0.0 3.2 0.00 0.00 0.00 96 1020.4
20260506184020 8 90 0.0 3.2 0.00 0.00 0.00 96 1020.4
20260506183518 8 90 1.6 3.2 0.00 0.00 0.00 96 1020.3
20260506183102 8 72 0.0 1.6 0.00 0.00 0.00 96 1020.3
20260506182516 8 72 0.0 1.6 0.00 0.00 0.00 96 1020.3
20260506182018 8 121 0.0 1.6 0.00 0.00 0.00 96 1020.3
20260506181955 8 121 0.0 1.6 0.00 0.00 0.00 96 1020.2
20260506181017 8 121 0.0 3.2 0.00 0.00 0.00 96 1020.3
20260506180525 8 121 0.0 3.2 0.00 0.00 0.00 96 1020.4
20260506180446 8 121 0.0 3.2 0.00 0.00 0.00 96 1020.3
20260506175515 8 121 0.0 3.2 0.00 0.00 0.00 96 1020.3
20260506175017 8 106 0.0 1.6 0.00 0.00 0.00 96 1020.1
20260506174547 8 106 0.0 1.6 0.00 0.00 0.00 96 1020.2
20260506174015 8 106 0.0 1.6 0.00 0.00 0.00 96 1020.1
20260506173516 8 106 0.0 1.6 0.00 0.00 0.00 96 1020.2
20260506173102 8 106 0.0 1.6 0.00 0.00 0.00 96 1020.2
20260506172514 8 106 0.0 3.2 0.00 0.00 0.00 96 1020.1
20260506172030 8 106 0.0 3.2 0.00 0.00 0.00 96 1020.1
20260506172026 8 106 0.0 3.2 0.00 0.00 0.00 96 1019.9
20260506171019 7 106 0.0 1.6 0.00 0.00 0.00 96 1019.9
20260506170640 7 106 0.0 1.6 0.00 0.00 0.00 96 1020.0
20260506170048 8 106 0.0 1.6 0.00 0.00 0.00 96 1019.9
20260506165514 8 106 0.0 1.6 0.00 0.00 0.00 96 1020.0
20260506165016 8 106 0.0 3.2 0.00 0.00 0.00 96 1020.0
20260506164539 8 106 0.0 3.2 0.00 0.00 0.00 96 1019.9
20260506164017 8 97 0.0 3.2 0.00 0.00 0.00 96 1019.9
20260506163513 7 97 0.0 3.2 0.00 0.00 0.00 96 1019.9
20260506163050 7 96 0.0 1.6 0.00 0.00 0.00 96 1019.9
20260506162515 7 96 0.0 3.2 0.00 0.00 0.00 96 1020.0
20260506162016 7 95 0.0 3.2 0.00 0.00 0.00 96 1019.9
20260506161946 7 71 0.0 1.6 0.00 0.00 0.00 96 1020.1
20260506161019 7 71 0.0 1.6 0.00 0.00 0.00 96 1020.0
20260506160524 7 71 0.0 1.6 0.00 0.00 0.00 96 1020.1
20260506160046 7 71 0.0 1.6 0.00 0.00 0.00 96 1019.9
20260506155518 7 71 0.0 1.6 0.00 0.00 0.00 96 1019.8
20260506155014 7 71 0.0 1.6 0.00 0.00 0.00 96 1019.8
20260506154544 7 71 0.0 1.6 0.00 0.00 0.00 96 1019.9
20260506154021 7 71 0.0 1.6 0.00 0.00 0.00 95 1019.8
20260506153514 7 71 0.0 1.6 0.00 0.00 0.00 96 1019.8
20260506153045 7 71 0.0 1.6 0.00 0.00 0.00 96 1019.9
20260506152518 7 71 0.0 1.6 0.00 0.00 0.00 96 1019.9
20260506152016 7 67 0.0 1.6 0.00 0.00 0.00 96 1019.9
20260506151549 7 67 0.0 1.6 0.00 0.00 0.00 95 1019.7
20260506151014 7 67 0.0 1.6 0.00 0.00 0.00 95 1019.8
20260506150527 7 67 0.0 1.6 0.00 0.00 0.00 96 1019.7
20260506150038 7 67 0.0 1.6 0.00 0.00 0.00 95 1019.7
20260506145515 7 67 0.0 1.6 0.00 0.00 0.00 96 1019.6
20260506145017 7 67 0.0 1.6 0.00 0.00 0.00 95 1019.7
20260506144547 7 67 0.0 1.6 0.00 0.00 0.00 95 1019.6
20260506144015 7 67 0.0 1.6 0.00 0.00 0.00 95 1019.7
20260506143516 7 67 0.0 1.6 0.00 0.00 0.00 95 1019.7
20260506143052 7 67 0.0 1.6 0.00 0.00 0.00 95 1019.8
20260506142516 7 67 0.0 1.6 0.00 0.00 0.00 95 1019.6
20260506142015 7 67 0.0 1.6 0.00 0.00 0.00 95 1019.5
20260506141536 7 67 0.0 1.6 0.00 0.00 0.00 95 1019.5
20260506141015 7 67 0.0 0.0 0.00 0.00 0.00 95 1019.4
20260506140516 7 67 0.0 1.6 0.00 0.00 0.00 95 1019.4
20260506140049 7 67 0.0 1.6 0.00 0.00 0.00 95 1019.4
20260506135519 7 67 0.0 1.6 0.00 0.00 0.00 95 1019.2
20260506135024 7 67 0.0 1.6 0.00 0.00 0.00 95 1019.3
20260506134828 7 66 0.0 0.0 0.00 0.00 0.00 95 1019.1
20260506134015 7 66 0.0 0.0 0.00 0.00 0.00 95 1019.1
20260506133514 7 66 0.0 0.0 0.00 0.00 0.00 95 1019.1
20260506133053 6 66 0.0 0.0 0.00 0.00 0.00 94 1019.1
20260506132515 7 66 0.0 0.0 0.00 0.00 0.00 94 1019.1
20260506132011 7 66 0.0 0.0 0.00 0.00 0.00 95 1019.1
20260506131949 7 66 0.0 0.0 0.00 0.00 0.00 94 1019.0
20260506131019 7 66 0.0 0.0 0.00 0.00 0.00 94 1019.0
20260506130528 7 66 0.0 0.0 0.00 0.00 0.00 94 1019.1
20260506130056 7 66 0.0 0.0 0.00 0.00 0.00 94 1018.9
20260506125525 7 66 0.0 0.0 0.00 0.00 0.00 94 1019.0
20260506125015 7 66 0.0 0.0 0.00 0.00 0.00 94 1018.9
20260506124554 7 66 0.0 1.6 0.00 0.00 0.00 94 1018.9
20260506124016 7 60 0.0 1.6 0.00 0.00 0.00 93 1018.9
20260506123516 7 60 0.0 1.6 0.00 0.00 0.00 92 1018.8
20260506123049 7 60 0.0 0.0 0.00 0.00 0.00 92 1018.7
20260506122514 7 60 0.0 0.0 0.00 0.00 0.00 92 1018.7
20260506122014 7 60 0.0 1.6 0.00 0.00 0.00 91 1018.7
20260506121549 8 60 0.0 1.6 0.00 0.00 0.00 90 1018.7
20260506121016 8 60 0.0 0.0 0.00 0.00 0.00 89 1018.9
20260506120516 8 60 0.0 0.0 0.00 0.00 0.00 89 1018.9
20260506120054 8 60 0.0 0.0 0.00 0.00 0.00 89 1018.9
20260506115516 9 60 0.0 0.0 0.00 0.00 0.00 90 1018.9
20260506115014 9 60 0.0 0.0 0.00 0.00 0.00 90 1018.8
20260506114554 9 60 0.0 0.0 0.00 0.00 0.00 91 1018.7
20260506114015 9 60 0.0 0.0 0.00 0.00 0.00 91 1018.8
20260506113650 9 60 0.0 0.0 0.00 0.00 0.00 91 1018.7
20260506113647 10 60 0.0 0.0 0.00 0.00 0.00 92 1018.7
20260506112519 10 60 0.0 0.0 0.00 0.00 0.00 92 1018.7
20260506112016 10 60 0.0 0.0 0.00 0.00 0.00 92 1018.6
20260506111610 10 60 0.0 0.0 0.00 0.00 0.00 92 1018.7
20260506111015 9 60 0.0 0.0 0.00 0.00 0.00 92 1018.6
20260506110523 9 60 0.0 0.0 0.00 0.00 0.00 92 1018.6
20260506110053 9 60 0.0 0.0 0.00 0.00 0.00 92 1018.7
20260506105520 9 60 0.0 0.0 0.00 0.00 0.00 92 1018.5
20260506105013 10 60 0.0 0.0 0.00 0.00 0.00 91 1018.6
20260506104547 10 60 0.0 0.0 0.00 0.00 0.00 92 1018.6
20260506104016 10 60 0.0 0.0 0.00 0.00 0.00 91 1018.6
20260506103517 10 60 0.0 0.0 0.00 0.00 0.00 91 1018.6
20260506103055 10 60 0.0 0.0 0.00 0.00 0.00 91 1018.6
20260506102516 10 60 0.0 0.0 0.00 0.00 0.00 91 1018.6
20260506102016 10 60 0.0 0.0 0.00 0.00 0.00 91 1018.6
20260506101559 10 60 0.0 0.0 0.00 0.00 0.00 91 1018.5
20260506101014 10 60 0.0 0.0 0.00 0.00 0.00 91 1018.5
20260506100513 10 60 0.0 0.0 0.00 0.00 0.00 91 1018.6
20260506100111 10 60 0.0 0.0 0.00 0.00 0.00 91 1018.5
20260506095514 10 60 0.0 0.0 0.00 0.00 0.00 91 1018.5
20260506095017 10 60 0.0 0.0 0.00 0.00 0.00 91 1018.5
20260506094613 10 60 0.0 0.0 0.00 0.00 0.00 91 1018.5
20260506094016 10 60 0.0 0.0 0.00 0.00 0.00 91 1018.5
20260506093516 10 60 0.0 0.0 0.00 0.00 0.00 91 1018.5
20260506093103 10 60 0.0 0.0 0.00 0.00 0.00 91 1018.5
20260506092517 10 60 0.0 0.0 0.00 0.00 0.00 91 1018.5
20260506092016 10 60 0.0 0.0 0.00 0.00 0.00 91 1018.4
20260506091558 10 60 0.0 0.0 0.00 0.00 0.00 91 1018.4
20260506091015 10 60 0.0 0.0 0.00 0.00 0.00 90 1018.4
20260506090517 10 60 0.0 0.0 0.00 0.00 0.00 90 1018.4
20260506090056 10 60 0.0 0.0 0.00 0.00 0.00 90 1018.6
20260506085518 10 60 0.0 0.0 0.00 0.00 0.00 90 1018.5
20260506085017 10 60 0.0 0.0 0.00 0.00 0.00 90 1018.5
20260506084552 10 60 0.0 0.0 0.00 0.00 0.00 90 1018.5
20260506084018 10 60 0.0 0.0 0.00 0.00 0.00 89 1018.5
20260506083517 10 60 0.0 0.0 0.00 0.00 0.00 88 1018.5
20260506083108 10 60 0.0 0.0 0.00 0.00 0.00 88 1018.5
20260506082516 10 60 0.0 0.0 0.00 0.00 0.00 87 1018.5
20260506082018 11 60 0.0 0.0 0.00 0.00 0.00 87 1018.4
20260506081552 11 60 0.0 0.0 0.00 0.00 0.00 87 1018.4
20260506081013 11 60 0.0 0.0 0.00 0.00 0.00 88 1018.3
20260506080516 11 60 0.0 0.0 0.00 0.00 0.00 88 1018.3
20260506073523 11 60 0.0 3.2 0.00 0.00 0.00 88 1018.1
20260506073058 11 60 0.0 3.2 0.00 0.00 0.00 88 1018.2
20260506072520 11 60 0.0 3.2 0.00 0.00 0.00 87 1018.1
20260506072018 11 60 0.0 3.2 0.00 0.00 0.00 88 1018.1
20260506071556 11 60 0.0 1.6 0.00 0.00 0.00 88 1018.2
20260506071017 11 60 0.0 1.6 0.00 0.00 0.00 88 1018.2
20260506070518 11 60 0.0 1.6 0.00 0.00 0.00 88 1018.2
20260506070126 11 60 0.0 1.6 0.00 0.00 0.00 88 1018.2
20260506062018 11 60 0.0 0.0 0.00 0.00 0.00 86 1018.0
20260506061610 11 60 0.0 0.0 0.00 0.00 0.00 86 1018.0
20260506061021 11 60 0.0 0.0 0.00 0.00 0.00 87 1018.0
20260506060521 11 60 0.0 0.0 0.00 0.00 0.00 87 1017.9
20260506060117 11 60 0.0 0.0 0.00 0.00 0.00 86 1017.9
20260506051024 11 60 0.0 0.0 0.00 0.00 0.00 85 1017.8
20260506050521 11 60 0.0 0.0 0.00 0.00 0.00 86 1017.8
20260506050117 11 60 0.0 0.0 0.00 0.00 0.00 85 1017.8
20260506045026 11 60 0.0 0.0 0.00 0.00 0.00 86 1017.7
20260506044546 11 60 0.0 0.0 0.00 0.00 0.00 85 1017.8
20260506044020 11 60 0.0 0.0 0.00 0.00 0.00 85 1017.8
20260506043514 12 60 0.0 0.0 0.00 0.00 0.00 85 1017.8
20260506043058 12 60 0.0 0.0 0.00 0.00 0.00 85 1017.7
20260506042514 12 60 0.0 0.0 0.00 0.00 0.00 85 1017.7
20260506042017 12 60 0.0 0.0 0.00 0.00 0.00 85 1017.7
20260506041806 12 60 0.0 0.0 0.00 0.00 0.00 85 1017.6
20260506041027 12 60 0.0 0.0 0.00 0.00 0.00 86 1017.6
20260506040519 12 60 0.0 0.0 0.00 0.00 0.00 86 1017.6
20260506040049 12 60 0.0 0.0 0.00 0.00 0.00 86 1017.6
20260506035516 12 60 0.0 0.0 0.00 0.00 0.00 85 1017.5
20260506035016 12 60 0.0 0.0 0.00 0.00 0.00 85 1017.4
20260506034551 12 60 0.0 0.0 0.00 0.00 0.00 85 1017.3
20260506034017 12 60 0.0 0.0 0.00 0.00 0.00 84 1017.3
20260506033514 12 60 0.0 0.0 0.00 0.00 0.00 84 1017.4
20260506033046 12 60 0.0 0.0 0.00 0.00 0.00 84 1017.3
20260506032516 12 60 0.0 0.0 0.00 0.00 0.00 83 1017.3
20260506032016 12 60 0.0 0.0 0.00 0.00 0.00 83 1017.2
20260506031811 12 60 0.0 0.0 0.00 0.00 0.00 83 1017.2
20260506031016 12 60 0.0 0.0 0.00 0.00 0.00 83 1017.2
20260506030518 12 60 0.0 0.0 0.00 0.00 0.00 83 1017.3
20260506030039 12 60 0.0 0.0 0.00 0.00 0.00 83 1017.2
20260506025532 12 60 0.0 0.0 0.00 0.00 0.00 82 1017.3
20260506025016 12 60 0.0 0.0 0.00 0.00 0.00 82 1017.2
20260506024605 12 60 0.0 0.0 0.00 0.00 0.00 82 1017.1
20260506024014 12 60 0.0 0.0 0.00 0.00 0.00 82 1017.1
20260506023514 12 60 0.0 0.0 0.00 0.00 0.00 82 1017.0
20260506023051 12 60 0.0 0.0 0.00 0.00 0.00 82 1017.1
20260506022514 12 60 0.0 1.6 0.00 0.00 0.00 81 1017.1
20260506022016 12 60 0.0 1.6 0.00 0.00 0.00 81 1017.1
20260506021553 13 60 0.0 1.6 0.00 0.00 0.00 81 1017.1
20260506021015 13 60 0.0 1.6 0.00 0.00 0.00 80 1017.3
20260506020515 13 60 0.0 1.6 0.00 0.00 0.00 80 1017.3
20260506020106 13 60 0.0 1.6 0.00 0.00 0.00 80 1017.3
20260506015517 13 60 0.0 1.6 0.00 0.00 0.00 80 1017.3
20260506015011 13 60 0.0 1.6 0.00 0.00 0.00 80 1017.4
20260506014622 13 60 0.0 1.6 0.00 0.00 0.00 79 1017.4
20260506014015 13 60 0.0 1.6 0.00 0.00 0.00 79 1017.4
20260506013515 13 63 0.0 1.6 0.00 0.00 0.00 78 1017.4
20260506013049 13 63 0.0 1.6 0.00 0.00 0.00 78 1017.4
20260506012515 13 63 0.0 1.6 0.00 0.00 0.00 78 1017.3
20260506012017 13 85 0.0 1.6 0.00 0.00 0.00 78 1017.3
20260506011622 13 85 0.0 1.6 0.00 0.00 0.00 78 1017.3
20260506011015 13 96 0.0 1.6 0.00 0.00 0.00 78 1017.1
20260506010517 13 96 0.0 1.6 0.00 0.00 0.00 77 1017.1
20260506010047 13 96 0.0 1.6 0.00 0.00 0.00 77 1017.3
20260506005516 14 96 0.0 3.2 0.00 0.00 0.00 77 1017.3
20260506005015 13 96 0.0 3.2 0.00 0.00 0.00 78 1017.3
20260506004558 13 96 0.0 1.6 0.00 0.00 0.00 77 1017.3
20260506004017 14 96 0.0 1.6 0.00 0.00 0.00 77 1017.2
20260506003516 14 96 0.0 1.6 0.00 0.00 0.00 77 1017.3
20260506003046 14 96 0.0 1.6 0.00 0.00 0.00 76 1017.4
20260506002518 14 96 0.0 3.2 0.00 0.00 0.00 76 1017.3
20260506002017 14 96 0.0 3.2 0.00 0.00 0.00 77 1017.5
20260506001613 14 87 0.0 3.2 0.00 0.00 0.00 76 1017.4
20260506001021 14 87 0.0 3.2 0.00 0.00 0.00 76 1017.3
20260506000521 14 93 0.0 1.6 0.00 0.00 0.00 75 1017.4
20260506000123 15 140 0.0 1.6 0.00 0.00 0.00 75 1017.4
20260505235517 15 140 0.0 4.8 0.00 0.00 0.00 74 1017.4
20260505235016 15 140 0.0 4.8 0.00 0.00 0.00 73 1017.5
20260505234611 15 144 0.0 4.8 0.00 0.00 0.00 74 1017.6
20260505234016 15 121 0.0 3.2 0.00 0.00 0.00 73 1017.6
20260505233516 15 121 0.0 3.2 0.00 0.00 0.00 74 1017.6